Regional Weather Roundup
Issued by NWS Sterling, VA

Home | Current Version | Previous Version | Graphics & Text | Print | Product List | Glossary On
Versions: 1 2 3 4 5 6 7 8 9 10 11 12 13 14 15 16 17 18 19 20 21 22 23 24 25 26 27 28 29 30 31 32 33 34 35 36 37 38 39 40 41 42 43 44 45 46 47 48 49 50
000
ASUS41 KLWX 190710
RWRLWX

REGIONAL WEATHER ROUNDUP
NATIONAL WEATHER SERVICE BALTIMORE MD/WASHINGTON DC
300 AM EDT FRI SEP 19 2014

Note: "FAIR" indicates few or no clouds below 12,000 feet
with no significant weather and/or obstructions to visibility.
 TC=TEMPERATURE CELSIUS

 * =Non NWS site. Station does not report precipitation (e.g. rain,
    snow, etc.), thunder, or fog.

DCZ001-MDZ009-015-VAZ040>042-051-053>054-190800-
WASHINGTON METRO

CITY           SKY/WX    TMP DP  RH WIND       PRES   REMARKS
WASHINGTON NAT CLEAR     64  59  83 N5        30.14R
DULLES         CLEAR     55  52  89 NW3       30.14R
ANDREWS AFB    CLEAR     54  54 100 N5        30.13R
QUANTICO       PTCLDY    61  58  90 NW7       30.14R
COLLEGE PARK*  CLEAR     57  57 100 CALM      30.13R
LEESBURG*      CLEAR     54  54 100 CALM      30.16R
MANASSAS*      MOCLDY    57  57 100 NW3       30.14S
GAITHERSBURG*  CLEAR     54  54 100 CALM      30.18R

$$

MDZ006>007-011-014-190800-
BALTIMORE METRO

CITY           SKY/WX    TMP DP  RH WIND       PRES   REMARKS
BWI AIRPORT    PTCLDY    55  54  96 CALM      30.13S
MD SCIENCE CTR   N/A     63  54  72 MISG      30.14R
MARTIN STATE   CLEAR     57  55  94 CALM      30.15R
ANNAPOLIS      CLEAR     64  61  90 N6        30.12R FOG
FORT MEADE*    CLEAR     52  50  93 CALM      30.16R

$$

MDZ012-015-019>023-190800-
MARYLAND EASTERN SHORE

CITY           SKY/WX    TMP DP  RH WIND       PRES   REMARKS
OCEAN CITY     PTCLDY    57  54  89 CALM      30.12R
SALISBURY      CLEAR     61  57  87 CALM      30.12R
BAY BRIDGE AP*   N/A     59  55  88 CALM      30.13R
CAMBRIDGE*       N/A     55  54  94 CALM      30.12R
EASTON*        CLEAR     58  58 100 CALM      30.16S

$$

MDZ017>025-190800-
SOUTHERN MARYLAND

CITY           SKY/WX    TMP DP  RH WIND       PRES   REMARKS
PATUXENT RIVER CLEAR     58  56  93 SW5       30.12R
ST INIGOES     CLEAR     56  52  86 CALM      30.12R
LEONARDTOWN*   CLEAR     55  52  88 CALM      30.14R

$$

MDZ003>005-190800-
NORTH CENTRAL MARYLAND

CITY           SKY/WX    TMP DP  RH WIND       PRES   REMARKS
FREDERICK*     PTCLDY    52  52 100 N3        30.18R
HAGERSTOWN APT MOCLDY    56  47  71 N7        30.16R
WESTMINSTER*   CLEAR     54  48  82 CALM      30.16S

$$

MDZ501>502-190800-
WESTERN MARYLAND

CITY           SKY/WX    TMP DP  RH WIND       PRES   REMARKS
OAKLAND*       MOCLDY    52  39  62 E7        30.20R
CUMBERLAND*    PTCLDY    54  46  76 N6        30.22R

$$

VAZ025>031-190800-
SHENANDOAH VALLEY

CITY           SKY/WX    TMP DP  RH WIND       PRES   REMARKS
WINCHESTER*    CLOUDY    52  48  87 SE3       30.16R
STAUNTON*      CLOUDY    62  52  70 N5        30.17S

$$

WVZ021-048>050-054>055-190800-
EASTERN WEST VIRGINIA PANHANDLE

CITY           SKY/WX    TMP DP  RH WIND       PRES   REMARKS
MARTINSBURG    MOCLDY    51  47  86 CALM      30.16R
PETERSBURG*    PTCLDY    51  49  93 CALM      30.19R FOG

$$

VAZ036>039-050-190800-
CENTRAL FOOTHILLS

CITY           SKY/WX    TMP DP  RH WIND       PRES   REMARKS
CHARLOTTESVILL CLOUDY    62  57  83 NE5       30.13R
ORANGE*        CLOUDY    59  57  94 CALM      30.14S

$$

VAZ055>057-190800-
NORTH AND CENTRAL PIEDMONT

CITY           SKY/WX    TMP DP  RH WIND       PRES   REMARKS
FREDERICKSBRG* CLOUDY    60  60 100 CALM      30.12S
STAFFORD*      FOG       53  53 100 CALM      30.17S VSB 1

$$

NCZ024-NYZ072-PAZ021-071-VAZ022-071-190800-
OTHER REGIONAL OBSERVATIONS

CITY           SKY/WX    TMP DP  RH WIND       PRES   REMARKS
NEW YORK CITY  CLEAR     61  47  59 VRB6      30.19R
PHILADELPHIA   CLEAR     60  49  66 N12       30.14R
PITTSBURGH     PTCLDY    53  49  86 N5        30.19S
ROANOKE        CLOUDY    63  60  90 CALM      30.14R
RICHMOND       MOCLDY    62  58  86 CALM      30.12R
RALEIGH        PTCLDY    66  59  78 SE6       30.09S

$$

ANZ530>537-190800-
MARINE OBSERVATIONS

STATION/POSITION TIME  TEMP    WIND        PRES
                       AIR SEA DIR/SP/G
                 (UTC) (F)     (DEG/KT/KT) (MB)
THOMAS PT LIGHT  0700   66 74  360/  8/  8 1020.9R
BALT KEY BRIDGE  0700   65     320/  5/  7 1020.1R
COVE POINT       0700   67     280/  2/  3 1019.8R
LEWISETTA        0700   65 74  240/  3/  4 1019.6R
SOLOMONS ISLAND  0700      76                N/A
PINEY POINT      0700           60/  4/  4   N/A

$$




USA.gov is the U.S. government's official web portal to all federal, state and local government web resources and services.